Vlieland, Netherlands

10:00 AM CEST on June 29, 2017 (GMT +0200)
Vlieland

Weather History for EHVL - December, 2012

Change the Weather History Date:

Saturday, December 8, 2012

  Actual Average Record
Temperature  
Mean Temperature 32 °F -  
Max Temperature 42 °F 41 °F 55 °F (2000)
Min Temperature 21 °F 36 °F 21 °F (2012)
Degree Days  
Heating Degree Days 34    
Moisture  
Dew Point 30 °F    
Average Humidity 87    
Maximum Humidity 93    
Minimum Humidity 75    
Precipitation  
Precipitation 0.00 in - - ()
Sea Level Pressure  
Sea Level Pressure 30.10 in    
Wind  
Wind Speed 9 mph ()    
Max Wind Speed 25 mph    
Max Gust Speed -    
Visibility 5.4 miles    
Events Rain    
Averages and records for this station are not official NWS values.
T = Trace of Precipitation, MM = Missing Value Source: Averaged Metar Reports

Daily Weather History Graph

Daily Weather History Graph

Search for Another Location

Airport or City:

Trip Planner

Search our weather history database for the weather conditions in past years. The results will help you decide how hot, cold, wet, or windy it might be!

Date:

Astronomy

Dec. 08, 2012 Rise Set
Actual Time 8:41 AM CET 4:22 PM CET
Civil Twilight 7:59 AM CET 5:04 PM CET
Nautical Twilight 7:14 AM CET 5:49 PM CET
Astronomical Twilight 6:32 AM CET 6:31 PM CET
Moon 2:08 AM CET (12/8) 1:20 PM CET (12/8)
Length of Visible Light 9h 05m
Length of Day
7h 40m
Waning Crescent, 31% of the Moon is Illuminated
Dec 8
Waning Crescent
Dec 13
New
Dec 20
First Quarter
Dec 28
Full
Jan 5
Last Quarter

Hourly Weather History & Observations

Time (CET) Temp. Windchill Dew Point Humidity Pressure Visibility Wind Dir Wind Speed Gust Speed Precip Events Conditions
12:25 AM 28.4 °F 19.7 °F 26.6 °F 93% 29.92 in 6.2 mi ENE 9.2 mph - N/A   Unknown
12:55 AM 28.4 °F 20.4 °F 24.8 °F 86% 29.95 in 6.2 mi ENE 8.1 mph - N/A   Unknown
1:25 AM 28.4 °F 20.4 °F 24.8 °F 86% 29.95 in 6.2 mi East 8.1 mph - N/A   Unknown
1:55 AM 28.4 °F 21.2 °F 24.8 °F 86% 29.98 in 6.2 mi ENE 6.9 mph - N/A   Unknown
2:25 AM 26.6 °F 19.1 °F 24.8 °F 93% 29.98 in 6.2 mi East 6.9 mph - N/A   Unknown
2:55 AM 26.6 °F 20.0 °F 23.0 °F 86% 30.01 in 6.2 mi East 5.8 mph - N/A   Unknown
3:25 AM 24.8 °F 19.1 °F 21.2 °F 86% 30.01 in 5.6 mi East 4.6 mph - N/A   Mist
3:45 AM 24.8 °F 20.5 °F 21.2 °F 86% 30.04 in 4.3 mi East 3.5 mph - N/A   Mist
3:49 AM 24.8 °F 20.5 °F 21.2 °F 86% 30.04 in 5.0 mi East 3.5 mph - N/A   Mist
3:55 AM 24.8 °F - 21.2 °F 86% 30.04 in 5.0 mi East 2.3 mph - N/A   Mist
4:00 AM 23.0 °F - 21.2 °F 93% 30.04 in 4.3 mi East 2.3 mph - N/A   Mist
4:08 AM 23.0 °F 18.4 °F 21.2 °F 93% 30.04 in 5.0 mi East 3.5 mph - N/A   Mist
4:19 AM 23.0 °F 18.4 °F 19.4 °F 86% 30.04 in 4.3 mi ESE 3.5 mph - N/A   Mist
4:25 AM 23.0 °F 18.4 °F 19.4 °F 86% 30.04 in 4.3 mi ESE 3.5 mph - N/A   Mist
4:31 AM 23.0 °F 18.4 °F 21.2 °F 93% 30.04 in 5.0 mi ESE 3.5 mph - N/A   Mist
4:35 AM 23.0 °F 17.0 °F 21.2 °F 93% 30.04 in 4.3 mi ESE 4.6 mph - N/A   Mist
4:55 AM 23.0 °F 18.4 °F 21.2 °F 93% 30.04 in 3.1 mi ESE 3.5 mph - N/A   Mist
5:21 AM 23.0 °F - 19.4 °F 86% 30.06 in 5.0 mi ESE 2.3 mph - N/A   Mist
5:25 AM 23.0 °F 18.4 °F 19.4 °F 86% 30.06 in 3.7 mi ESE 3.5 mph - N/A   Mist
5:32 AM 21.2 °F 16.4 °F 19.4 °F 93% 30.06 in 5.0 mi SE 3.5 mph - N/A   Mist
5:36 AM 21.2 °F 16.4 °F 19.4 °F 93% 30.06 in 4.3 mi SE 3.5 mph - N/A   Mist
5:40 AM 23.0 °F 18.4 °F 19.4 °F 86% 30.06 in 5.0 mi SE 3.5 mph - N/A   Mist
5:43 AM 23.0 °F 18.4 °F 21.2 °F 93% 30.06 in 4.3 mi SE 3.5 mph - N/A   Mist
5:55 AM 23.0 °F 18.4 °F 21.2 °F 93% 30.06 in 3.7 mi SE 3.5 mph - N/A   Mist
6:25 AM 24.8 °F 19.1 °F 23.0 °F 93% 30.06 in 4.3 mi SE 4.6 mph - N/A   Mist
6:55 AM 23.0 °F 18.4 °F 21.2 °F 93% 30.09 in 5.0 mi SSE 3.5 mph - N/A   Mist
6:59 AM 24.8 °F 20.5 °F 23.0 °F 93% 30.09 in 4.3 mi SSE 3.5 mph - N/A   Mist
7:10 AM 24.8 °F 20.5 °F 23.0 °F 93% 30.09 in 5.0 mi SSE 3.5 mph - N/A   Mist
7:14 AM 26.6 °F 22.6 °F 24.8 °F 93% 30.09 in 4.3 mi SSE 3.5 mph - N/A   Mist
7:25 AM 26.6 °F 22.6 °F 24.8 °F 93% 30.09 in 3.7 mi SSE 3.5 mph - N/A   Mist
7:44 AM 26.6 °F 21.2 °F 24.8 °F 93% 30.09 in 3.1 mi South 4.6 mph - N/A   Scattered Clouds
7:48 AM 26.6 °F 22.6 °F 24.8 °F 93% 30.09 in 3.7 mi South 3.5 mph - N/A   Mostly Cloudy
7:55 AM 28.4 °F 23.3 °F 26.6 °F 93% 30.12 in 4.3 mi South 4.6 mph - N/A   Overcast
8:10 AM 28.4 °F 23.3 °F 24.8 °F 86% 30.12 in - South 4.6 mph - N/A   Overcast
8:14 AM 28.4 °F 23.3 °F 24.8 °F 86% 30.12 in 3.1 mi South 4.6 mph - N/A   Mostly Cloudy
8:25 AM 28.4 °F 21.2 °F 26.6 °F 93% 30.12 in 3.7 mi South 6.9 mph - N/A   Mostly Cloudy
8:36 AM 28.4 °F 21.2 °F 26.6 °F 93% 30.12 in 3.7 mi South 6.9 mph - N/A   Mist
8:55 AM 28.4 °F 22.2 °F 26.6 °F 93% 30.12 in 3.1 mi South 5.8 mph - N/A   Mist
9:05 AM 28.4 °F 22.2 °F 26.6 °F 93% 30.12 in - SSW 5.8 mph - N/A   Mist
9:11 AM 28.4 °F 22.2 °F 26.6 °F 93% 30.12 in 3.1 mi SSW 5.8 mph - N/A   Mist
9:15 AM 30.2 °F 24.3 °F 26.6 °F 86% 30.12 in - SSW 5.8 mph - N/A   Mist
9:19 AM 28.4 °F 22.2 °F 26.6 °F 93% 30.12 in 3.1 mi SSW 5.8 mph - N/A   Mist
9:25 AM 28.4 °F 22.2 °F 26.6 °F 93% 30.15 in 3.1 mi SSW 5.8 mph - N/A   Mist
9:35 AM 30.2 °F 23.4 °F 28.4 °F 93% 30.15 in 4.3 mi SSW 6.9 mph - N/A   Mist
9:55 AM 30.2 °F 23.4 °F 28.4 °F 93% 30.15 in 3.7 mi SSW 6.9 mph - N/A   Mist
10:01 AM 32.0 °F 25.6 °F 30.2 °F 93% 30.15 in 5.0 mi SSW 6.9 mph - N/A   Mist
10:05 AM 32.0 °F 25.6 °F 30.2 °F 93% 30.15 in 4.3 mi SSW 6.9 mph - N/A   Mist
10:09 AM 32.0 °F 25.6 °F 30.2 °F 93% 30.15 in 5.0 mi SSW 6.9 mph - N/A   Mist
10:25 AM 32.0 °F 24.8 °F 30.2 °F 93% 30.15 in 5.6 mi SSW 8.1 mph - N/A   Mostly Cloudy
10:55 AM 33.8 °F 27.0 °F 30.2 °F 87% 30.15 in 6.2 mi SSW 8.1 mph - N/A   Unknown
11:25 AM 33.8 °F 27.7 °F 30.2 °F 87% 30.18 in 6.2 mi SSW 6.9 mph - N/A   Unknown
11:55 AM 33.8 °F 25.8 °F 30.2 °F 87% 30.15 in 6.2 mi SSW 10.4 mph - N/A   Unknown
12:25 PM 35.6 °F 27.5 °F 30.2 °F 81% 30.15 in 6.2 mi SSW 11.5 mph - N/A   Unknown
12:55 PM 35.6 °F 28.0 °F 30.2 °F 81% 30.15 in 6.2 mi SW 10.4 mph - N/A   Unknown
1:25 PM 37.4 °F 29.8 °F 30.2 °F 75% 30.15 in 6.2 mi SSW 11.5 mph - N/A   Mostly Cloudy
1:55 PM 37.4 °F 28.9 °F 32.0 °F 81% 30.15 in 6.2 mi SW 13.8 mph - N/A   Partly Cloudy
2:25 PM 39.2 °F 30.8 °F 32.0 °F 75% 30.15 in 6.2 mi SSW 15.0 mph - N/A   Mostly Cloudy
2:55 PM 37.4 °F 28.9 °F 32.0 °F 81% 30.15 in 6.2 mi SSW 13.8 mph - N/A   Overcast
3:25 PM 37.4 °F 29.3 °F 32.0 °F 81% 30.15 in 6.2 mi SSW 12.7 mph - N/A   Overcast
3:55 PM 37.4 °F 29.3 °F 32.0 °F 81% 30.15 in 6.2 mi South 12.7 mph - N/A   Overcast
4:25 PM 37.4 °F 29.8 °F 33.8 °F 87% 30.15 in 6.2 mi South 11.5 mph - N/A   Mostly Cloudy
4:55 PM 37.4 °F 28.5 °F 33.8 °F 87% 30.15 in 5.6 mi SSW 15.0 mph - N/A   Mostly Cloudy
5:25 PM 37.4 °F 28.9 °F 33.8 °F 87% 30.15 in 5.6 mi SSW 13.8 mph - N/A   Overcast
5:33 PM 37.4 °F 29.8 °F 35.6 °F 93% 30.15 in 6.2 mi SSW 11.5 mph - N/A   Mostly Cloudy
5:39 PM 37.4 °F 29.8 °F 35.6 °F 93% 30.15 in 6.2 mi SSW 11.5 mph - N/A   Mostly Cloudy
5:55 PM 39.2 °F 30.5 °F 35.6 °F 87% 30.12 in 6.2 mi WSW 16.1 mph - N/A   Overcast
5:59 PM 39.2 °F 30.2 °F 37.4 °F 93% 30.12 in 6.2 mi WSW 17.3 mph - N/A   Overcast
6:08 PM 42.8 °F 34.5 °F 39.2 °F 87% 30.12 in 6.2 mi WSW 18.4 mph - N/A   Overcast
6:25 PM 41.0 °F 32.2 °F 37.4 °F 87% 30.12 in 6.2 mi WSW 18.4 mph - N/A   Overcast
6:29 PM 41.0 °F 32.8 °F 35.6 °F 81% 30.12 in 6.2 mi WSW 16.1 mph - N/A   Mostly Cloudy
6:40 PM 41.0 °F 33.1 °F 37.4 °F 87% 30.12 in 6.2 mi West 15.0 mph - N/A   Mostly Cloudy
6:55 PM 42.8 °F 34.8 °F 37.4 °F 81% 30.12 in 6.2 mi West 17.3 mph - N/A   Overcast
7:25 PM 42.8 °F 34.8 °F 37.4 °F 81% 30.12 in 6.2 mi West 17.3 mph - N/A   Mostly Cloudy
7:48 PM 42.8 °F 34.0 °F 37.4 °F 81% 30.12 in 6.2 mi West 20.7 mph - N/A   Mostly Cloudy
7:55 PM 42.8 °F 33.3 °F 37.4 °F 81% 30.12 in 6.2 mi West 24.2 mph - N/A   Mostly Cloudy
7:56 PM 42.8 °F 33.8 °F 37.4 °F 81% 30.12 in 6.2 mi West 21.9 mph - N/A   Mostly Cloudy
8:25 PM 42.8 °F 35.4 °F 37.4 °F 81% 30.12 in 6.2 mi West 15.0 mph - N/A   Overcast
8:29 PM 42.8 °F 35.1 °F 37.4 °F 81% 30.12 in 6.2 mi West 16.1 mph - N/A   Mostly Cloudy
8:33 PM 42.8 °F 34.5 °F 37.4 °F 81% 30.12 in 6.2 mi West 18.4 mph - N/A   Mostly Cloudy
8:43 PM 42.8 °F 34.3 °F 37.4 °F 81% 30.12 in 6.2 mi West 19.6 mph - N/A   Mostly Cloudy
8:55 PM 42.8 °F 34.0 °F 37.4 °F 81% 30.12 in 6.2 mi West 20.7 mph - N/A   Mostly Cloudy
9:04 PM 42.8 °F 34.5 °F 39.2 °F 87% 30.12 in 6.2 mi West 18.4 mph - N/A   Mostly Cloudy
9:08 PM 42.8 °F 34.5 °F 39.2 °F 87% 30.12 in 6.2 mi West 18.4 mph - N/A   Mostly Cloudy
9:12 PM 42.8 °F 34.3 °F 39.2 °F 87% 30.12 in 6.2 mi West 19.6 mph - N/A   Overcast
9:21 PM 42.8 °F 33.5 °F 39.2 °F 87% 30.12 in 6.2 mi West 23.0 mph - N/A   Mostly Cloudy
9:25 PM 42.8 °F 33.5 °F 37.4 °F 81% 30.12 in 6.2 mi West 23.0 mph - N/A   Mostly Cloudy
9:47 PM 42.8 °F 34.0 °F 37.4 °F 81% 30.09 in 6.2 mi West 20.7 mph - N/A   Drizzle
9:55 PM 42.8 °F 33.5 °F 37.4 °F 81% 30.09 in 6.2 mi West 23.0 mph - N/A   Drizzle
9:59 PM 41.0 °F 30.9 °F 37.4 °F 87% 30.09 in 6.2 mi West 24.2 mph - N/A   Drizzle
10:12 PM 41.0 °F 30.9 °F 35.6 °F 81% 30.09 in 6.2 mi West 24.2 mph - N/A   Drizzle
10:16 PM 41.0 °F 30.9 °F 37.4 °F 87% 30.09 in 6.2 mi West 24.2 mph - N/A   Drizzle
10:25 PM 41.0 °F 31.1 °F 37.4 °F 87% 30.09 in 5.0 mi West 23.0 mph - N/A   Drizzle
10:38 PM 41.0 °F 31.6 °F 37.4 °F 87% 30.09 in 6.2 mi West 20.7 mph - N/A Rain Drizzle
10:39 PM 41.0 °F 31.4 °F 37.4 °F 87% 30.09 in 6.2 mi West 21.9 mph - N/A Rain Light Rain
10:49 PM 41.0 °F 31.1 °F 37.4 °F 87% 30.09 in 6.2 mi West 23.0 mph - N/A Rain Light Rain
10:55 PM 41.0 °F 30.9 °F 37.4 °F 87% 30.09 in 6.2 mi West 24.2 mph - N/A   Drizzle
11:25 PM 41.0 °F 30.9 °F 37.4 °F 87% 30.06 in 6.2 mi WSW 24.2 mph - N/A   Drizzle
11:26 PM 41.0 °F 30.9 °F 37.4 °F 87% 30.06 in 6.2 mi WSW 24.2 mph - N/A   Drizzle
11:31 PM 41.0 °F 30.9 °F 35.6 °F 81% 30.06 in 6.2 mi WSW 24.2 mph - N/A   Drizzle
11:35 PM 41.0 °F 31.1 °F 35.6 °F 81% 30.06 in 6.2 mi WSW 23.0 mph - N/A   Drizzle
11:55 PM 41.0 °F 30.7 °F 37.4 °F 87% 30.06 in 6.2 mi WSW 25.3 mph - N/A   Drizzle